#timestamp,LO_Frequency,Hit,StdDev 
1698051615.3,286046998.2,N
1698051635.1,286047001.2,N
1698051655.8,286047001.0,N
1698051675.7,286047001.0,N
1698051695.5,286047000.4,N
1698051715.4,286047000.5,N
1698051735.2,286046998.7,N
1698051755.0,286046999.0,N
1698051755.9,286046999.0,N
1698051775.8,286046998.6,N
1698051795.6,286046999.2,N
1698051815.4,286046999.5,N
1698051835.3,286046999.3,N
1698051855.1,286046998.7,N
1698051875.9,286047000.5,N
1698051895.7,286047000.8,N
1698051915.5,286047000.9,N
1698051935.4,286046998.6,N
1698051955.2,286046998.3,N
1698051975.1,286046998.3,N
1698051976.0,286046998.3,N
1698051995.8,286046998.2,N
1698052015.6,286046998.7,N
1698052035.5,286046999.4,N
1698052055.3,286047000.8,N
1698052075.1,286047001.2,N
1698052095.9,286047000.5,N
1698052115.7,286047001.0,N
1698052135.6,286047002.3,N
1698052155.4,286047002.5,N
1698052175.2,286047002.6,N
1698052195.1,286047002.6,N
1698052196.0,286047002.6,N
1698052215.8,286047001.8,N
1698052235.6,286047002.3,N
1698052255.5,286047002.0,N
1698052275.3,286047000.0,N
1698052295.2,286047002.4,N
1698052315.9,286047001.8,N
1698052335.7,286047002.3,N
1698052355.6,286047001.9,N
1698052375.4,286047002.6,N
1698052395.2,286047002.8,N
1698052415.1,286047001.4,N
1698052416.0,286047001.4,N
1698052435.8,286047002.0,N
1698052455.7,286047000.1,N
1698052475.5,286047000.7,N
1698052495.3,286047001.0,N
1698052515.2,286046999.9,N
1698052535.0,286046998.1,N
1698052535.9,286046998.1,N
1698052555.7,286047000.0,N
1698052575.6,286047002.8,N
1698052595.4,286047002.0,N
1698052615.3,286047002.4,N
1698052635.1,286046999.7,N
1698052655.8,286047004.4,Y
1698052675.7,286047000.2,P
1698052695.5,286047000.0,N
1698052715.4,286047001.1,N
1698052735.2,286046998.3,N
1698052755.0,286046998.9,N
1698052755.9,286046998.9,N
1698052775.8,286046998.5,N
1698052795.6,286047001.0,N
1698052815.4,286047000.9,N
1698052835.3,286047000.9,N
1698052855.1,286046998.4,N
1698052875.9,286046999.0,N
1698052895.7,286046999.0,N
1698052915.5,286046999.0,N
1698052935.4,286046999.4,N
1698052955.2,286046998.3,N
1698052975.0,286046998.7,N
1698052975.9,286046998.7,N
1698052995.8,286046999.1,N
1698053015.6,286046999.1,N
1698053035.5,286046998.9,N
1698053055.3,286046998.9,N
1698053075.1,286046998.3,N
1698053095.9,286047000.8,N
1698053115.7,286047000.6,N
1698053135.6,286047000.5,N
1698053155.4,286047000.9,N
1698053175.2,286047000.3,N
1698053195.1,286047000.8,N
1698053196.0,286047000.8,N
1698053215.8,286047000.4,N
1698053235.6,286047000.4,N
1698053255.5,286047000.8,N
1698053275.3,286047000.8,N
1698053295.2,286047000.3,N
1698053315.9,286046999.9,N
1698053335.7,286047002.3,N
1698053355.6,286046999.9,N
1698053375.4,286047000.4,N
1698053395.3,286047002.8,N
1698053415.1,286047000.9,N
1698053416.0,286047000.9,N
1698053435.8,286047000.1,N
1698053455.7,286047002.1,N
1698053475.5,286047000.5,N
1698053495.3,286047002.8,N
1698053515.2,286046999.9,N
1698053535.0,286047002.7,N
1698053535.9,286047002.7,N
1698053555.8,286047002.2,N
1698053575.6,286047002.4,N
1698053595.4,286047002.2,N
1698053615.3,286047002.5,N
1698053635.1,286047000.0,N
1698053655.8,286047000.4,N
1698053675.7,286047000.2,N
1698053695.5,286046999.9,N
1698053715.4,286047000.2,N
1698053735.2,286047000.9,N
1698053755.0,286047001.1,N
1698053755.9,286047001.1,N
1698053775.8,286046999.0,N
1698053795.6,286046998.8,N
1698053815.5,286046998.6,N
1698053835.3,286046998.6,N
1698053855.1,286046999.0,N
1698053875.9,286046997.2,N
1698053895.7,286046997.0,N
1698053915.5,286046999.3,N
1698053935.4,286046997.1,N
1698053955.2,286046999.0,N
1698053975.1,286046998.5,N
1698053976.0,286046998.5,N
1698053995.8,286046999.4,N
1698054015.6,286046998.7,N
1698054035.5,286046996.9,N
1698054055.3,286046999.2,N
1698054075.1,286046999.3,N
1698054095.9,286046999.6,N
1698054115.7,286046999.1,N
1698054135.6,286046999.6,N
1698054155.4,286046996.6,N
1698054175.3,286046997.9,N
1698054195.1,286046995.8,Y
1698054196.0,286046995.8,P
1698054215.8,286046996.1,N
1698054235.7,286046995.1,P
1698054255.5,286046995.6,N
1698054275.4,286046994.0,Y
1698054295.2,286046997.0,P
1698054315.0,286046995.2,P
1698054315.9,286046995.2,P
1698054335.8,286046997.1,Y
1698054355.6,286047002.4,P
1698054375.4,286046999.7,N
1698054395.3,286047000.4,N
1698054415.1,286047001.1,N
1698054435.9,286047001.1,N
1698054455.7,286047000.7,N
1698054475.5,286047000.8,N
1698054495.4,286047001.2,N
1698054515.2,286046999.5,N
1698054535.0,286046999.2,N
1698054536.0,286046999.2,N
1698054555.8,286046998.9,N
1698054575.6,286046998.5,N
1698054595.5,286047001.1,N
1698054615.3,286047001.2,N
1698054635.1,286046999.6,N
1698054655.9,286046998.9,N
1698054675.7,286046998.2,N
1698054695.5,286046996.7,N
1698054715.4,286046997.3,N
1698054735.2,286046997.0,N
1698054755.1,286046998.3,N
1698054756.0,286046998.3,N
1698054775.8,286046998.9,N
1698054795.6,286046999.1,N
1698054815.5,286046997.1,N
1698054835.3,286046997.6,N
1698054855.1,286046994.9,Y
1698054875.9,286046996.7,P
1698054895.7,286046998.0,N
1698054915.6,286046994.9,P
1698054935.4,286046995.2,Y
1698054955.2,286047001.1,P
1698054975.1,286047001.1,N
1698054976.0,286047001.1,N
1698054995.8,286046999.1,N
1698055015.7,286046999.0,N
1698055035.5,286046996.5,N
1698055055.3,286046997.0,N
1698055075.2,286046997.1,N
1698055095.9,286046996.7,N
1698055115.7,286046995.7,N
1698055135.6,286046995.1,N
1698055155.4,286046994.9,N
1698055175.3,286046995.0,N
1698055195.1,286046997.4,N
1698055196.0,286046997.4,N
